Showing default

YAOGAN-32 B, 43643

Orbit data source: Space-Track

YAOGAN-32 B, 43643 is a payload satellite owned by PLA SSF (CN) in SSO that was launched on Tue, 09 Oct 2018 UTC via a CHANG ZHENG 2C/YZ-1S launch vehicle from the Jiuquan Satellite Launch Center, China (JSC). Payloads include a variety of satellites, spacecraft, and rockets equipped with specific instruments for various scientific and technological missions. These include communications satellites like Starlink; space stations such as the ISS; scientific satellites like the Hubble; Earth observation satellites from companies like Planet Labs, Umbra, and HawkEye 360; GPS; miniature CubeSats for education and research; and military/defense satellites.

Loading next visibility...
YAOGAN-32 B details
Identifier
43643, 2018-077B
Orbit
SSO
Last TLE update2 hours ago
Origin
Flag of CNPLA SSF (CN / PRC)
ManufacturerSECM?
MissionOperational Defense Sigint
Bus & MotorUnknown
Mass~500 kg wet, ~500 kg dry
Launch date (UTC)
2018-10-09 (6 years ago)
Launch vehicle
CHANG ZHENG 2C/YZ-1S
Launch site
Jiuquan Satellite Launch Center, China (JSC)
Object type
Payload
Rocket body
Debris
Shape & HBRBox + 2 Pan, 1 m
Radar Cross Section0.446 m², Large (>1 m²)

Expand to show TLE details & history

TLE from 2 hours ago
0 YAOGAN-32 B
1 43643U 18077B   24346.86842566  .00001727  00000-0  35372-3 0  9997
2 43643  97.9657  21.5065 0001592  88.9346 271.2039 14.61967024329096
Epoch: 2024-12-11T20:50Z
Definitive object data (Epoch: 2024-12-11T20:50:31.977Z)
Latitude0.00008°
Longitude-12.18368°
Altitude689.801 km
Speed7.511 km/s
True Right ascension01h 26m 01s
True Declination0° 00' 00"
Sunlit
Object was in full shadow at TLE epoch
Visualization TLE readout
Latitude0.34231°
Longitude167.9628°
Altitude689.798 km
Speed7.511 km/s
Apparent Right ascension11h 56m 32s
Apparent Declination-20° 47' 23"
Sunlit
Object is in daylight
Visualization observer readout
Local Sidereal Time21:42:21
Azimuth293.79° NW
Elevation-55.627°
Doppler factor1
Orbital elements
Apogee altitude685.022 km
Perigee altitude682.773 km
Semi-major axis7,062.035 km
Eccentricity0.0001592
Inclination97.9657°
RAAN21.5065°
Arg. of periapsis88.9346°
True anomaly271.18566°
Mean anomaly271.2039°
Eccentric anomaly271.19478°
Mean motion3.6572 °/min
BSTAR0.00035372
Orbital period98.44 mins
Loading maneuver chart data...
Loading historical data...
Loading historical data...
Loading historical data...
Loading historical data...
Loading historical data...
Loading historical data...
Loading historical data...
Other satellites on launch #77 in the year 2018 (2018-10-09 UTC)

YAOGAN-32 B Visibility forecast

Observer location: undefined°, undefined

Span
Click to sort rows by Start time (UTC) header in descending order
Start Az.
Max El. time (UTC)
Max El. Az.
Max El.
End time (UTC)
End Az.
7 mins2024-12-12 01:54:11.859Z132.684° SE2024-12-12 01:58:11.859Z58.177° ENE30.151°2024-12-12 02:01:11.859Z9.708° NNE
5 mins2024-12-12 03:33:11.859Z231.37° WSW2024-12-12 03:35:11.859Z264.071° W19.976°2024-12-12 03:38:11.859Z309.878° NW
8 mins2024-12-12 15:29:11.859Z10.295° NNE2024-12-12 15:33:11.859Z218.961° SW43.746°2024-12-12 15:37:11.859Z196.977° SSW
|